Precipitable_Water
1.09 1.07 1.07 1.03 0.95 0.91 0.89 0.89 0.89 0.89 0.87 0.87 0.87 0.85 0.85 0.83 0.81 0.79 0.81 0.81 0.83 0.81 0.79 0.77 0.75 0.75 0.75 0.75 0.77 0.79 0.81 0.81 0.81 0.81 0.79 0.75 0.71 0.65 0.60 0.56 0.50 0.46 0.42 0.42 0.44 0.44 0.44 0.44 0.42 0.42 0.42 0.42 0.42 0.40 0.38 0.38 0.36 0.36 0.34 0.32 0.30 0.30 0.28 0.28 0.26 0.26 0.26 0.26 0.26
1.07 1.05 1.03 0.97 0.93 0.91 0.91 0.91 0.91 0.89 0.89 0.89 0.87 0.87 0.85 0.85 0.81 0.81 0.81 0.83 0.85 0.85 0.83 0.81 0.79 0.79 0.79 0.79 0.81 0.83 0.83 0.81 0.81 0.79 0.75 0.69 0.64 0.60 0.56 0.52 0.52 0.52 0.52 0.54 0.54 0.52 0.50 0.48 0.44 0.42 0.42 0.42 0.42 0.40 0.40 0.38 0.36 0.36 0.34 0.32 0.32 0.30 0.28 0.28 0.28 0.28 0.28 0.26 0.26
1.03 1.03 1.01 0.95 0.93 0.91 0.93 0.95 0.93 0.91 0.89 0.89 0.89 0.89 0.87 0.87 0.85 0.83 0.85 0.85 0.87 0.87 0.85 0.83 0.81 0.81 0.81 0.81 0.83 0.83 0.83 0.81 0.79 0.77 0.73 0.65 0.65 0.64 0.64 0.64 0.64 0.64 0.62 0.60 0.56 0.54 0.50 0.48 0.44 0.42 0.40 0.40 0.40 0.40 0.38 0.38 0.36 0.34 0.34 0.32 0.30 0.30 0.28 0.28 0.28 0.28 0.28 0.26 0.26
1.01 1.01 0.97 0.93 0.91 0.93 0.95 0.95 0.95 0.93 0.91 0.91 0.91 0.89 0.89 0.89 0.87 0.87 0.87 0.87 0.87 0.87 0.85 0.85 0.83 0.83 0.83 0.83 0.83 0.83 0.83 0.81 0.77 0.73 0.71 0.69 0.69 0.69 0.71 0.71 0.69 0.65 0.62 0.54 0.52 0.48 0.46 0.42 0.42 0.42 0.40 0.40 0.40 0.38 0.38 0.36 0.34 0.34 0.32 0.30 0.30 0.30 0.30 0.28 0.28 0.28 0.26 0.26 0.26
0.99 0.97 0.95 0.93 0.93 0.95 0.95 0.97 0.95 0.93 0.91 0.91 0.91 0.91 0.91 0.91 0.89 0.87 0.87 0.87 0.87 0.87 0.87 0.87 0.85 0.85 0.85 0.83 0.83 0.83 0.81 0.77 0.73 0.71 0.69 0.69 0.69 0.69 0.69 0.67 0.64 0.60 0.56 0.50 0.48 0.46 0.44 0.42 0.42 0.42 0.40 0.40 0.38 0.36 0.36 0.36 0.34 0.32 0.32 0.30 0.30 0.30 0.28 0.28 0.26 0.26 0.26 0.24 0.24
0.97 0.95 0.95 0.95 0.95 0.95 0.95 0.97 0.95 0.93 0.91 0.91 0.91 0.91 0.89 0.89 0.87 0.87 0.85 0.85 0.87 0.87 0.87 0.85 0.85 0.83 0.83 0.83 0.81 0.79 0.75 0.71 0.69 0.67 0.67 0.67 0.65 0.64 0.62 0.58 0.56 0.52 0.50 0.50 0.46 0.44 0.44 0.44 0.44 0.42 0.40 0.36 0.36 0.34 0.34 0.34 0.32 0.32 0.30 0.28 0.28 0.28 0.28 0.26 0.26 0.26 0.24 0.24 0.24
0.93 0.93 0.93 0.95 0.95 0.95 0.95 0.95 0.93 0.93 0.91 0.91 0.91 0.89 0.89 0.87 0.85 0.85 0.83 0.85 0.87 0.87 0.87 0.85 0.83 0.83 0.81 0.81 0.77 0.73 0.69 0.64 0.64 0.64 0.64 0.64 0.62 0.58 0.54 0.52 0.50 0.48 0.46 0.46 0.44 0.44 0.44 0.42 0.40 0.38 0.36 0.34 0.34 0.32 0.32 0.32 0.32 0.30 0.28 0.28 0.28 0.28 0.26 0.26 0.26 0.26 0.24 0.24 0.24
0.89 0.89 0.91 0.93 0.93 0.93 0.93 0.91 0.91 0.91 0.91 0.91 0.89 0.89 0.87 0.87 0.85 0.83 0.83 0.83 0.85 0.83 0.81 0.81 0.81 0.79 0.77 0.75 0.71 0.67 0.62 0.56 0.58 0.58 0.58 0.58 0.54 0.50 0.48 0.46 0.46 0.46 0.44 0.44 0.46 0.44 0.42 0.40 0.38 0.36 0.34 0.34 0.32 0.32 0.32 0.30 0.30 0.28 0.26 0.26 0.26 0.26 0.26 0.26 0.24 0.24 0.24 0.24 0.22
0.85 0.85 0.87 0.87 0.87 0.87 0.85 0.85 0.87 0.89 0.89 0.89 0.89 0.89 0.87 0.87 0.85 0.83 0.83 0.83 0.81 0.79 0.79 0.77 0.75 0.73 0.71 0.69 0.65 0.60 0.56 0.52 0.52 0.52 0.52 0.50 0.48 0.46 0.46 0.44 0.46 0.46 0.46 0.46 0.46 0.42 0.40 0.38 0.36 0.34 0.34 0.32 0.30 0.30 0.30 0.28 0.28 0.26 0.26 0.26 0.24 0.26 0.24 0.24 0.24 0.24 0.24 0.22 0.22
0.83 0.83 0.83 0.83 0.83 0.83 0.85 0.85 0.85 0.87 0.87 0.87 0.87 0.87 0.87 0.87 0.85 0.83 0.81 0.81 0.79 0.77 0.77 0.75 0.71 0.69 0.67 0.65 0.60 0.56 0.52 0.48 0.48 0.48 0.46 0.46 0.46 0.46 0.46 0.46 0.46 0.46 0.48 0.46 0.44 0.40 0.38 0.36 0.34 0.34 0.32 0.32 0.30 0.28 0.28 0.28 0.26 0.24 0.24 0.24 0.24 0.24 0.24 0.24 0.24 0.24 0.22 0.22 0.20
0.81 0.81 0.79 0.79 0.79 0.81 0.81 0.83 0.83 0.83 0.83 0.83 0.85 0.85 0.85 0.85 0.83 0.81 0.81 0.79 0.77 0.75 0.73 0.71 0.69 0.67 0.65 0.62 0.58 0.54 0.50 0.48 0.46 0.46 0.46 0.46 0.46 0.46 0.46 0.48 0.48 0.46 0.46 0.42 0.42 0.40 0.38 0.34 0.34 0.32 0.32 0.30 0.28 0.28 0.26 0.26 0.24 0.24 0.24 0.24 0.24 0.24 0.24 0.24 0.24 0.22 0.22 0.22 0.20
0.79 0.77 0.77 0.77 0.77 0.79 0.79 0.79 0.81 0.81 0.81 0.81 0.83 0.83 0.83 0.81 0.81 0.79 0.77 0.75 0.73 0.71 0.69 0.67 0.65 0.64 0.62 0.58 0.54 0.50 0.48 0.46 0.44 0.46 0.46 0.46 0.46 0.48 0.48 0.48 0.46 0.44 0.44 0.42 0.40 0.38 0.36 0.34 0.32 0.32 0.30 0.28 0.28 0.28 0.26 0.26 0.26 0.24 0.24 0.24 0.24 0.24 0.24 0.22 0.22 0.22 0.22 0.22 0.20
0.77 0.75 0.75 0.75 0.75 0.75 0.75 0.77 0.77 0.79 0.79 0.79 0.81 0.79 0.79 0.77 0.77 0.75 0.71 0.71 0.69 0.67 0.65 0.65 0.64 0.60 0.56 0.52 0.50 0.46 0.46 0.44 0.44 0.44 0.46 0.46 0.48 0.48 0.48 0.46 0.44 0.42 0.40 0.40 0.38 0.38 0.36 0.34 0.32 0.30 0.28 0.28 0.28 0.26 0.26 0.26 0.26 0.26 0.24 0.24 0.24 0.24 0.24 0.24 0.22 0.22 0.22 0.22 0.20
0.73 0.73 0.73 0.73 0.73 0.73 0.73 0.73 0.75 0.75 0.77 0.77 0.77 0.77 0.75 0.73 0.73 0.71 0.67 0.67 0.65 0.64 0.64 0.62 0.62 0.56 0.50 0.48 0.46 0.44 0.44 0.42 0.42 0.44 0.46 0.48 0.48 0.48 0.46 0.44 0.42 0.40 0.40 0.38 0.38 0.36 0.36 0.34 0.32 0.30 0.28 0.28 0.26 0.26 0.26 0.26 0.26 0.26 0.26 0.24 0.24 0.24 0.24 0.24 0.22 0.22 0.22 0.20 0.20
0.67 0.69 0.69 0.69 0.71 0.71 0.71 0.71 0.73 0.71 0.71 0.71 0.71 0.71 0.71 0.69 0.69 0.67 0.65 0.64 0.64 0.62 0.62 0.60 0.58 0.52 0.48 0.44 0.42 0.42 0.42 0.42 0.42 0.44 0.46 0.48 0.46 0.46 0.44 0.42 0.40 0.40 0.38 0.38 0.36 0.36 0.34 0.34 0.32 0.30 0.28 0.28 0.26 0.26 0.26 0.26 0.26 0.26 0.26 0.26 0.24 0.24 0.24 0.24 0.24 0.22 0.22 0.22 0.20
0.65 0.65 0.67 0.69 0.69 0.69 0.69 0.69 0.69 0.69 0.67 0.67 0.67 0.67 0.65 0.65 0.65 0.64 0.64 0.62 0.62 0.60 0.58 0.56 0.54 0.50 0.44 0.42 0.42 0.42 0.42 0.42 0.42 0.44 0.46 0.46 0.46 0.44 0.42 0.40 0.40 0.38 0.38 0.36 0.36 0.34 0.34 0.34 0.32 0.30 0.30 0.28 0.28 0.26 0.26 0.26 0.26 0.26 0.26 0.26 0.26 0.26 0.24 0.24 0.24 0.24 0.22 0.22 0.22
0.64 0.65 0.65 0.67 0.67 0.67 0.67 0.67 0.67 0.65 0.64 0.64 0.64 0.64 0.62 0.62 0.62 0.62 0.60 0.60 0.60 0.58 0.56 0.54 0.52 0.48 0.44 0.42 0.42 0.42 0.42 0.42 0.42 0.44 0.46 0.46 0.44 0.42 0.40 0.40 0.40 0.38 0.38 0.36 0.36 0.34 0.34 0.32 0.32 0.30 0.30 0.28 0.28 0.28 0.28 0.26 0.26 0.26 0.26 0.26 0.26 0.26 0.26 0.24 0.24 0.24 0.22 0.22 0.22
0.62 0.64 0.65 0.65 0.65 0.65 0.65 0.64 0.64 0.62 0.60 0.60 0.60 0.60 0.60 0.60 0.60 0.60 0.60 0.58 0.58 0.56 0.54 0.52 0.48 0.46 0.44 0.42 0.42 0.42 0.42 0.42 0.42 0.44 0.46 0.44 0.44 0.42 0.40 0.40 0.38 0.38 0.38 0.36 0.34 0.34 0.32 0.32 0.32 0.30 0.30 0.30 0.28 0.28 0.28 0.28 0.28 0.28 0.28 0.28 0.28 0.28 0.26 0.26 0.24 0.24 0.24 0.22 0.22
0.60 0.62 0.64 0.64 0.64 0.64 0.62 0.62 0.60 0.58 0.58 0.58 0.58 0.56 0.56 0.56 0.56 0.58 0.58 0.58 0.56 0.54 0.52 0.50 0.46 0.44 0.42 0.42 0.42 0.42 0.42 0.42 0.44 0.46 0.46 0.46 0.42 0.42 0.40 0.40 0.38 0.38 0.38 0.36 0.34 0.34 0.32 0.32 0.30 0.30 0.30 0.30 0.28 0.28 0.28 0.28 0.28 0.28 0.28 0.28 0.28 0.28 0.28 0.26 0.26 0.24 0.24 0.22 0.22
0.58 0.60 0.62 0.64 0.64 0.62 0.60 0.58 0.58 0.56 0.56 0.56 0.54 0.54 0.54 0.54 0.54 0.56 0.56 0.56 0.54 0.52 0.50 0.48 0.46 0.44 0.42 0.42 0.42 0.42 0.42 0.44 0.44 0.46 0.46 0.46 0.42 0.40 0.40 0.38 0.38 0.38 0.36 0.36 0.34 0.32 0.32 0.32 0.30 0.30 0.30 0.30 0.30 0.30 0.28 0.28 0.28 0.28 0.28 0.28 0.28 0.28 0.28 0.28 0.26 0.26 0.24 0.24 0.22
0.56 0.58 0.60 0.62 0.62 0.60 0.58 0.56 0.56 0.54 0.54 0.52 0.52 0.52 0.52 0.52 0.54 0.54 0.54 0.54 0.52 0.52 0.50 0.46 0.44 0.44 0.42 0.42 0.42 0.42 0.44 0.46 0.46 0.48 0.46 0.44 0.42 0.42 0.40 0.38 0.38 0.36 0.36 0.34 0.34 0.32 0.32 0.32 0.30 0.30 0.30 0.30 0.30 0.30 0.30 0.30 0.30 0.30 0.30 0.30 0.28 0.28 0.28 0.28 0.26 0.26 0.24 0.24 0.22
0.54 0.56 0.60 0.60 0.60 0.58 0.56 0.56 0.54 0.54 0.52 0.52 0.50 0.50 0.50 0.50 0.52 0.52 0.52 0.52 0.52 0.50 0.48 0.46 0.44 0.44 0.42 0.42 0.42 0.44 0.46 0.48 0.50 0.48 0.48 0.44 0.44 0.42 0.40 0.38 0.38 0.36 0.34 0.34 0.32 0.32 0.32 0.32 0.32 0.30 0.30 0.32 0.32 0.32 0.32 0.30 0.30 0.30 0.30 0.30 0.30 0.28 0.28 0.28 0.28 0.26 0.26 0.24 0.24
0.56 0.58 0.58 0.60 0.58 0.58 0.56 0.54 0.52 0.52 0.50 0.50 0.50 0.50 0.50 0.50 0.50 0.52 0.52 0.52 0.50 0.48 0.46 0.46 0.44 0.44 0.42 0.42 0.44 0.46 0.48 0.50 0.50 0.50 0.46 0.44 0.44 0.42 0.40 0.38 0.36 0.36 0.34 0.34 0.32 0.32 0.32 0.32 0.32 0.32 0.32 0.32 0.32 0.32 0.32 0.32 0.32 0.32 0.30 0.30 0.30 0.30 0.28 0.28 0.28 0.26 0.26 0.24 0.24
0.58 0.58 0.58 0.56 0.56 0.56 0.54 0.54 0.52 0.50 0.50 0.48 0.48 0.50 0.50 0.50 0.50 0.50 0.52 0.50 0.50 0.48 0.46 0.44 0.44 0.44 0.42 0.42 0.46 0.48 0.50 0.52 0.50 0.48 0.46 0.44 0.42 0.42 0.40 0.38 0.36 0.34 0.34 0.34 0.32 0.32 0.32 0.32 0.32 0.32 0.34 0.34 0.34 0.32 0.32 0.32 0.32 0.32 0.32 0.30 0.30 0.30 0.28 0.28 0.26 0.26 0.26 0.24 0.24
0.58 0.58 0.56 0.54 0.54 0.54 0.52 0.52 0.50 0.48 0.48 0.48 0.48 0.48 0.50 0.50 0.50 0.50 0.50 0.50 0.48 0.46 0.46 0.44 0.44 0.42 0.42 0.44 0.46 0.48 0.50 0.50 0.50 0.48 0.46 0.44 0.42 0.42 0.40 0.38 0.36 0.34 0.34 0.34 0.32 0.32 0.32 0.32 0.32 0.32 0.34 0.34 0.34 0.34 0.32 0.32 0.32 0.32 0.32 0.30 0.30 0.30 0.28 0.28 0.26 0.26 0.24 0.24 0.22
0.56 0.56 0.54 0.52 0.52 0.52 0.52 0.50 0.48 0.46 0.46 0.46 0.48 0.48 0.50 0.50 0.50 0.50 0.50 0.48 0.48 0.46 0.46 0.44 0.42 0.42 0.44 0.44 0.46 0.48 0.50 0.50 0.48 0.48 0.46 0.44 0.42 0.40 0.40 0.38 0.36 0.34 0.34 0.34 0.32 0.32 0.32 0.32 0.34 0.34 0.34 0.34 0.34 0.32 0.32 0.32 0.32 0.32 0.32 0.32 0.30 0.30 0.28 0.26 0.26 0.24 0.24 0.22 0.22
0.54 0.54 0.52 0.50 0.50 0.50 0.50 0.50 0.48 0.46 0.46 0.46 0.46 0.48 0.48 0.50 0.50 0.50 0.50 0.46 0.46 0.46 0.44 0.44 0.42 0.44 0.44 0.46 0.46 0.48 0.48 0.48 0.48 0.46 0.44 0.42 0.42 0.40 0.38 0.38 0.36 0.34 0.34 0.34 0.34 0.34 0.34 0.34 0.34 0.34 0.34 0.34 0.34 0.32 0.32 0.32 0.32 0.32 0.32 0.30 0.30 0.30 0.28 0.28 0.24 0.24 0.22 0.22 0.20
0.52 0.52 0.50 0.50 0.50 0.48 0.48 0.48 0.46 0.46 0.46 0.46 0.46 0.46 0.48 0.50 0.50 0.50 0.48 0.48 0.46 0.44 0.44 0.42 0.42 0.44 0.44 0.46 0.46 0.46 0.48 0.48 0.48 0.46 0.44 0.42 0.40 0.40 0.38 0.36 0.36 0.34 0.34 0.34 0.34 0.34 0.34 0.34 0.34 0.36 0.34 0.34 0.34 0.34 0.32 0.32 0.32 0.32 0.32 0.30 0.30 0.30 0.28 0.28 0.26 0.24 0.22 0.20 0.20
0.48 0.50 0.48 0.48 0.48 0.48 0.48 0.46 0.46 0.44 0.44 0.44 0.46 0.46 0.48 0.50 0.50 0.50 0.48 0.48 0.46 0.44 0.44 0.42 0.44 0.44 0.44 0.46 0.46 0.46 0.46 0.48 0.46 0.44 0.42 0.40 0.40 0.38 0.38 0.36 0.36 0.34 0.34 0.34 0.34 0.34 0.34 0.36 0.36 0.36 0.36 0.36 0.34 0.34 0.32 0.32 0.32 0.30 0.30 0.30 0.30 0.30 0.28 0.28 0.26 0.24 0.22 0.20 0.20
0.46 0.46 0.46 0.46 0.48 0.48 0.46 0.46 0.44 0.44 0.44 0.44 0.46 0.46 0.48 0.50 0.50 0.50 0.48 0.46 0.44 0.44 0.44 0.44 0.44 0.44 0.44 0.46 0.46 0.46 0.48 0.48 0.46 0.42 0.42 0.40 0.38 0.38 0.36 0.36 0.36 0.34 0.36 0.36 0.34 0.36 0.36 0.36 0.36 0.36 0.36 0.34 0.34 0.34 0.32 0.32 0.32 0.30 0.30 0.30 0.30 0.28 0.28 0.26 0.24 0.24 0.22 0.20 0.20
0.44 0.44 0.44 0.44 0.44 0.46 0.46 0.46 0.44 0.44 0.44 0.44 0.46 0.48 0.50 0.52 0.50 0.48 0.48 0.46 0.44 0.44 0.44 0.44 0.44 0.44 0.46 0.46 0.46 0.46 0.48 0.48 0.44 0.42 0.40 0.40 0.38 0.38 0.36 0.36 0.36 0.36 0.36 0.36 0.36 0.36 0.36 0.36 0.36 0.36 0.36 0.34 0.34 0.34 0.32 0.32 0.32 0.30 0.30 0.30 0.30 0.28 0.28 0.26 0.24 0.22 0.22 0.20 0.20
0.44 0.44 0.44 0.42 0.42 0.44 0.44 0.44 0.44 0.44 0.44 0.44 0.46 0.48 0.52 0.52 0.50 0.48 0.46 0.46 0.44 0.44 0.44 0.44 0.44 0.44 0.46 0.46 0.46 0.46 0.46 0.46 0.44 0.42 0.40 0.40 0.38 0.36 0.36 0.36 0.36 0.36 0.36 0.36 0.36 0.36 0.36 0.36 0.36 0.36 0.34 0.34 0.34 0.32 0.32 0.32 0.32 0.30 0.30 0.30 0.30 0.28 0.26 0.24 0.24 0.22 0.22 0.20 0.20
0.44 0.42 0.42 0.42 0.42 0.42 0.44 0.44 0.44 0.46 0.46 0.46 0.50 0.52 0.52 0.52 0.50 0.48 0.46 0.46 0.44 0.44 0.44 0.44 0.44 0.46 0.46 0.46 0.46 0.46 0.46 0.44 0.44 0.42 0.40 0.40 0.38 0.36 0.36 0.36 0.36 0.36 0.36 0.36 0.36 0.36 0.36 0.36 0.36 0.36 0.34 0.34 0.34 0.32 0.32 0.32 0.30 0.30 0.30 0.30 0.30 0.28 0.26 0.24 0.24 0.22 0.20 0.20 0.20
0.44 0.42 0.42 0.42 0.42 0.42 0.44 0.44 0.46 0.46 0.46 0.48 0.52 0.52 0.52 0.52 0.50 0.48 0.46 0.46 0.44 0.44 0.44 0.44 0.44 0.46 0.46 0.46 0.46 0.46 0.44 0.42 0.42 0.42 0.42 0.40 0.38 0.36 0.36 0.34 0.36 0.36 0.36 0.36 0.36 0.38 0.38 0.36 0.36 0.34 0.34 0.34 0.32 0.32 0.32 0.30 0.30 0.30 0.30 0.28 0.28 0.28 0.26 0.24 0.22 0.22 0.20 0.20 0.20
0.44 0.42 0.42 0.42 0.42 0.42 0.44 0.44 0.46 0.46 0.48 0.50 0.52 0.52 0.52 0.52 0.50 0.48 0.46 0.46 0.44 0.44 0.44 0.44 0.44 0.44 0.46 0.46 0.44 0.44 0.42 0.42 0.42 0.42 0.42 0.40 0.38 0.36 0.34 0.34 0.34 0.36 0.36 0.38 0.38 0.38 0.38 0.36 0.36 0.36 0.34 0.34 0.32 0.32 0.32 0.30 0.30 0.30 0.28 0.28 0.28 0.26 0.26 0.24 0.24 0.22 0.20 0.20 0.18
0.44 0.44 0.44 0.44 0.44 0.44 0.46 0.46 0.48 0.48 0.48 0.50 0.52 0.52 0.52 0.52 0.50 0.48 0.46 0.46 0.44 0.42 0.42 0.42 0.44 0.44 0.44 0.44 0.44 0.44 0.44 0.44 0.44 0.42 0.40 0.40 0.36 0.36 0.34 0.34 0.36 0.36 0.38 0.38 0.38 0.38 0.38 0.36 0.36 0.36 0.34 0.34 0.32 0.32 0.30 0.30 0.28 0.28 0.28 0.26 0.26 0.26 0.24 0.24 0.24 0.22 0.22 0.20 0.18
0.46 0.46 0.44 0.44 0.44 0.44 0.46 0.46 0.46 0.48 0.48 0.48 0.50 0.52 0.52 0.52 0.50 0.48 0.46 0.46 0.44 0.42 0.42 0.42 0.42 0.42 0.44 0.42 0.44 0.44 0.46 0.46 0.44 0.42 0.40 0.38 0.38 0.36 0.34 0.34 0.36 0.36 0.38 0.38 0.38 0.38 0.36 0.36 0.36 0.36 0.34 0.34 0.32 0.32 0.30 0.30 0.28 0.28 0.26 0.26 0.24 0.24 0.24 0.24 0.22 0.22 0.22 0.20 0.20
0.46 0.46 0.44 0.44 0.44 0.44 0.44 0.46 0.46 0.46 0.46 0.46 0.48 0.50 0.52 0.52 0.50 0.48 0.46 0.44 0.42 0.42 0.40 0.42 0.42 0.44 0.44 0.44 0.46 0.46 0.46 0.44 0.42 0.40 0.40 0.38 0.36 0.36 0.34 0.34 0.36 0.36 0.38 0.38 0.38 0.38 0.36 0.36 0.36 0.36 0.34 0.34 0.32 0.32 0.30 0.28 0.26 0.26 0.26 0.24 0.24 0.24 0.24 0.22 0.22 0.22 0.20 0.20 0.20
0.46 0.46 0.44 0.44 0.44 0.44 0.44 0.44 0.44 0.44 0.44 0.46 0.48 0.52 0.52 0.52 0.50 0.48 0.46 0.44 0.42 0.42 0.42 0.44 0.44 0.46 0.46 0.46 0.48 0.46 0.44 0.42 0.42 0.40 0.38 0.38 0.36 0.34 0.34 0.34 0.36 0.38 0.38 0.38 0.38 0.38 0.36 0.36 0.36 0.36 0.34 0.32 0.32 0.30 0.30 0.28 0.26 0.26 0.24 0.24 0.24 0.22 0.22 0.22 0.22 0.20 0.20 0.18 0.18
0.44 0.44 0.44 0.44 0.44 0.44 0.44 0.44 0.44 0.44 0.46 0.46 0.50 0.52 0.52 0.52 0.50 0.48 0.46 0.44 0.44 0.44 0.44 0.44 0.46 0.46 0.46 0.48 0.46 0.44 0.42 0.42 0.40 0.40 0.38 0.36 0.36 0.36 0.36 0.36 0.36 0.38 0.38 0.38 0.38 0.38 0.38 0.36 0.36 0.34 0.34 0.32 0.32 0.30 0.30 0.28 0.26 0.26 0.24 0.24 0.22 0.22 0.22 0.22 0.22 0.20 0.18 0.18 0.16
0.44 0.44 0.44 0.44 0.44 0.44 0.44 0.44 0.44 0.46 0.46 0.48 0.52 0.52 0.52 0.52 0.50 0.48 0.46 0.44 0.44 0.44 0.46 0.46 0.46 0.46 0.46 0.46 0.44 0.42 0.40 0.40 0.40 0.38 0.38 0.36 0.36 0.36 0.36 0.36 0.36 0.36 0.38 0.38 0.38 0.38 0.38 0.36 0.36 0.34 0.34 0.32 0.32 0.30 0.28 0.26 0.26 0.24 0.24 0.22 0.22 0.22 0.22 0.22 0.20 0.20 0.18 0.16 0.16
Wind_Speed
33 32 32 34 34 34 34 33 33 33 34 33 32 31 30 28 27 27 28 28 29 29 28 28 28 28 28 27 26 27 28 29 28 27 26 25 24 23 23 23 22 21 21 21 21 22 22 21 22 22 23 25 25 26 26 27 27 27 27 27 27 27 26 25 24 24 24 24 24
32 33 35 35 35 35 34 34 33 33 33 33 32 31 29 28 28 28 28 28 28 28 28 27 27 26 25 24 24 26 27 27 25 24 23 22 22 22 22 23 23 23 23 23 23 23 23 24 24 24 25 26 26 26 27 27 28 27 27 27 27 26 25 24 24 24 23 24 24
35 36 36 36 36 35 34 34 33 33 32 31 30 29 28 28 27 27 26 26 25 26 27 27 26 24 23 24 25 27 28 26 24 22 22 21 21 21 22 23 24 24 24 24 24 24 24 24 25 25 26 26 27 27 27 28 28 27 26 26 25 24 24 23 23 23 23 23 23
34 34 35 35 34 33 33 33 32 32 31 30 29 28 27 27 26 26 25 23 23 24 26 26 25 24 24 25 26 27 27 26 24 23 22 22 22 22 23 23 24 24 23 23 23 23 24 24 25 25 26 27 27 27 27 27 26 26 25 24 23 23 22 22 22 22 22 22 22
29 30 30 30 29 29 30 31 31 30 29 29 27 26 26 25 25 24 23 22 23 24 26 26 26 26 26 26 26 26 25 25 24 23 23 23 24 24 24 23 23 22 22 23 23 24 24 24 25 26 26 26 26 26 25 24 24 23 22 22 21 21 21 21 21 21 21 21 21
25 24 24 24 25 27 29 30 29 28 28 27 27 26 25 25 24 24 24 24 24 25 25 25 25 26 26 27 27 26 25 25 25 24 24 25 25 24 23 22 22 22 22 23 23 24 24 24 24 25 25 24 24 23 22 21 21 20 20 20 20 20 20 20 20 20 20 20 20
26 24 23 23 24 26 27 27 26 26 26 27 27 26 26 25 25 25 25 25 25 25 25 24 24 24 25 27 27 26 26 26 26 26 25 25 23 22 21 21 21 22 22 23 23 23 23 23 23 23 22 22 21 20 20 19 19 19 19 19 19 19 19 19 19 19 19 19 20
28 27 26 25 25 25 25 25 24 24 25 26 26 26 26 25 25 25 25 25 26 26 26 25 24 24 25 25 25 25 26 26 26 26 25 23 22 21 21 21 21 22 22 22 22 22 22 22 21 21 20 20 19 19 18 18 18 18 18 18 18 19 19 19 19 19 19 19 20
28 28 28 28 27 27 26 25 24 24 24 25 25 25 25 25 25 25 25 25 26 26 26 25 26 26 26 25 25 25 25 25 25 24 23 22 21 21 21 21 22 22 22 22 22 21 21 20 19 19 19 18 18 18 18 18 17 17 18 18 18 18 18 19 19 19 19 19 20
28 27 27 28 29 29 28 27 27 26 26 27 27 26 26 26 26 26 26 25 25 25 25 26 26 26 26 25 25 25 25 25 24 23 22 21 21 21 22 22 22 22 22 21 21 20 19 18 18 18 18 17 17 17 17 17 17 17 17 18 18 18 18 19 19 19 19 20 20
29 29 28 29 29 29 29 29 29 29 29 29 29 29 29 28 27 26 26 25 25 25 26 26 26 26 25 25 25 25 25 24 23 22 21 21 21 21 21 22 22 21 21 20 19 18 18 18 17 17 17 17 17 17 17 17 17 17 18 18 18 18 18 19 19 19 20 20 20
31 31 30 30 30 29 29 29 29 29 30 30 31 31 30 29 28 27 27 26 26 26 27 27 27 27 26 25 24 24 23 23 22 21 20 19 19 20 20 21 21 20 19 19 18 18 17 17 17 17 17 17 17 17 17 17 17 18 18 18 18 18 19 19 19 20 20 21 21
33 32 32 31 31 30 30 30 29 29 29 30 30 31 30 30 29 28 28 27 27 27 27 27 28 28 27 26 24 23 22 21 20 19 18 18 19 19 20 20 20 19 18 18 18 18 18 18 17 17 17 17 17 17 17 18 18 18 18 18 18 18 19 19 20 20 21 21 21
33 33 32 32 32 31 31 30 30 29 29 29 29 30 30 30 30 29 28 28 27 27 27 27 28 28 28 27 26 24 22 21 19 18 18 18 19 19 20 19 19 18 18 18 18 18 18 18 17 17 17 17 18 18 18 18 18 18 18 18 18 18 19 19 20 20 21 21 22
33 32 32 32 31 31 30 30 29 29 29 29 29 30 30 30 30 30 29 28 28 27 27 27 28 28 28 28 27 25 24 22 20 19 18 18 19 19 19 19 18 18 17 17 18 18 17 17 17 17 17 18 18 18 18 18 18 18 18 18 18 19 19 19 20 20 21 21 22
32 32 31 31 30 30 30 29 29 29 29 29 30 30 30 31 31 30 29 28 28 28 27 27 27 27 27 27 27 26 24 23 21 20 19 19 19 19 19 18 18 17 17 17 17 17 17 17 17 17 18 18 18 19 19 19 18 18 18 18 18 19 19 19 20 20 21 21 22
33 32 32 32 32 31 30 30 29 29 29 29 30 30 30 31 31 30 29 28 28 28 27 27 27 26 26 27 26 26 25 24 22 21 20 20 19 19 18 18 17 17 17 17 17 17 17 17 17 18 18 18 19 19 19 19 18 18 18 18 18 19 19 20 20 21 21 22 22
34 34 34 34 34 34 33 32 31 30 29 29 29 29 30 30 30 30 29 28 28 28 28 27 26 26 26 26 25 25 25 24 23 22 21 20 19 18 18 17 17 17 17 17 17 17 17 17 18 18 18 18 19 19 19 18 18 18 18 18 19 19 19 20 20 21 22 22 23
35 35 35 35 35 35 34 33 32 31 30 30 29 29 29 30 30 30 29 28 28 28 28 28 27 26 26 25 25 25 25 24 24 23 22 21 20 18 17 17 17 17 17 17 17 17 17 18 18 18 18 18 19 19 18 18 18 18 18 18 19 19 20 20 21 21 22 22 23
35 34 34 34 34 34 34 34 33 32 31 30 30 29 29 30 30 29 28 28 28 29 29 29 29 28 27 25 25 24 24 24 24 23 23 22 21 19 18 17 17 17 18 18 18 18 18 18 18 18 18 19 19 18 18 18 18 18 19 19 19 20 20 21 21 22 22 23 23
34 34 33 33 33 34 34 33 33 32 31 31 30 30 29 29 29 28 27 27 28 29 30 31 31 29 28 26 25 25 24 24 24 24 24 23 22 20 19 18 18 18 18 18 18 18 19 19 19 19 19 19 19 19 19 18 18 19 19 19 20 20 21 21 22 22 23 23 23
34 34 33 33 33 33 33 32 32 32 31 31 30 30 29 29 28 27 26 27 28 29 31 31 31 30 29 28 26 25 24 24 24 25 24 24 22 21 20 19 19 19 19 19 19 19 19 19 19 19 19 19 19 19 19 19 19 19 19 19 20 20 21 22 22 22 23 23 23
35 35 34 34 33 33 32 32 31 31 31 31 31 30 30 29 29 28 27 27 28 29 31 31 31 31 29 28 27 26 25 24 25 25 25 24 22 21 21 20 20 20 20 19 19 20 20 20 20 20 19 19 19 19 19 19 19 19 19 19 20 21 21 22 22 22 22 22 22
35 36 36 35 34 33 32 31 31 31 31 31 31 30 30 30 30 29 29 29 29 30 31 31 31 30 29 28 27 26 25 24 25 25 24 23 22 22 21 21 21 21 21 20 20 20 20 20 20 20 19 19 19 19 18 18 19 19 19 20 20 21 21 22 22 22 22 22 22
34 35 36 35 34 33 32 32 31 31 31 31 31 30 30 30 30 30 30 30 31 31 31 31 31 30 29 27 26 25 24 24 24 24 24 23 22 22 22 22 22 22 21 21 21 21 21 20 20 20 19 19 19 18 18 18 19 19 19 20 20 21 21 21 21 21 21 21 22
33 33 34 34 34 33 32 32 32 32 32 32 31 31 30 30 30 30 31 31 31 32 32 32 31 30 29 27 26 24 24 23 24 24 23 23 23 22 22 22 22 22 22 22 21 21 21 20 20 19 19 18 18 18 18 19 19 19 20 20 20 20 20 21 21 21 21 21 22
34 34 34 33 33 33 33 33 33 32 32 32 32 31 30 29 29 29 30 30 31 32 32 32 31 30 28 27 26 24 24 23 23 23 23 23 23 23 23 23 22 22 22 22 21 21 20 20 19 18 18 18 18 18 18 19 19 19 20 20 20 20 20 20 20 20 21 21 22
36 35 34 33 33 33 34 34 33 33 33 33 33 32 31 29 28 27 28 29 30 31 31 31 31 30 29 27 26 25 24 23 23 23 23 24 24 24 23 22 22 22 22 22 21 20 20 19 18 18 18 18 18 18 18 19 19 19 20 20 20 20 19 20 20 20 20 21 22
37 36 35 34 34 34 35 35 34 34 34 34 33 32 30 28 27 27 27 28 30 31 31 31 31 30 29 28 27 26 25 24 23 23 23 24 24 24 23 22 21 21 21 21 20 20 19 18 18 18 18 18 18 19 19 19 19 19 19 19 19 19 19 19 20 20 20 21 22
38 38 37 36 36 36 36 35 35 35 34 34 34 32 30 28 27 28 28 29 30 31 32 32 31 30 30 28 27 26 25 24 23 23 24 24 24 23 22 21 20 20 20 20 20 19 19 18 18 18 18 18 18 19 19 19 19 19 19 19 19 19 19 19 20 20 21 22 22
39 38 38 38 37 37 36 35 35 34 34 34 34 32 30 28 28 28 29 29 30 31 31 31 31 30 29 28 28 26 25 24 23 23 24 24 24 23 21 20 20 19 20 20 20 19 19 18 18 18 18 18 18 19 19 19 19 19 19 18 18 19 19 19 20 21 21 22 23
38 39 39 38 38 37 36 35 34 34 34 35 34 32 29 28 28 28 28 28 29 29 30 30 30 30 29 28 27 26 25 24 24 24 24 24 23 21 20 19 19 20 20 20 20 19 19 18 18 18 18 18 18 19 19 19 18 18 18 18 18 19 19 20 21 22 22 23 23
37 38 38 38 37 37 35 34 34 34 34 34 33 31 29 28 28 28 28 27 28 28 29 30 29 29 28 28 27 26 25 24 24 24 24 24 22 20 19 19 19 20 21 20 20 19 19 18 18 18 18 18 18 19 19 18 18 18 18 18 19 19 20 21 21 22 23 24 24
35 36 37 37 36 35 35 34 34 33 34 34 32 30 29 29 29 28 28 27 27 28 29 29 29 29 28 28 27 26 25 24 24 24 24 22 20 19 18 19 20 20 20 20 19 19 18 18 18 18 18 18 19 19 19 18 18 18 18 19 19 20 21 22 22 23 24 24 24
33 34 35 35 35 35 35 35 34 34 33 33 32 31 30 30 30 29 28 27 27 27 28 29 28 28 27 27 26 26 25 24 24 23 22 20 19 18 18 19 20 20 19 19 19 18 18 18 18 18 18 18 19 19 19 18 18 18 18 19 20 20 21 22 23 24 24 24 24
32 33 33 34 34 35 35 35 35 35 35 34 33 31 31 30 30 29 28 27 27 28 28 28 27 27 26 26 25 25 25 24 23 22 21 19 18 18 18 19 19 18 18 18 18 18 18 18 18 18 18 19 19 19 19 18 18 18 19 19 20 21 22 23 23 24 24 24 25
32 33 33 34 34 35 35 35 36 36 36 35 34 32 31 31 30 29 28 28 28 28 28 28 27 26 26 26 25 25 24 24 23 21 20 19 19 18 18 18 18 17 17 17 17 17 18 18 18 18 19 19 19 19 18 18 18 19 19 20 21 22 22 23 24 24 24 24 25
32 32 33 33 33 34 34 34 35 36 36 35 33 32 31 30 30 29 29 29 29 29 28 28 27 26 26 26 25 25 24 24 22 21 20 20 19 19 18 18 18 17 17 17 18 18 18 18 19 19 19 19 19 19 18 18 19 19 20 20 21 22 23 23 24 24 24 24 25
32 33 33 33 33 32 33 33 34 35 35 34 33 31 30 30 30 29 29 29 29 29 29 28 27 27 26 26 25 25 24 23 22 21 20 20 19 19 19 18 18 18 18 18 18 19 19 19 19 19 19 19 19 18 18 19 19 19 20 21 22 22 23 23 24 24 24 25 25
34 34 34 33 33 32 32 32 33 34 34 34 32 31 30 30 30 30 29 29 29 29 29 28 27 27 27 26 26 25 24 23 21 20 20 20 19 19 19 19 18 18 18 18 19 19 19 19 19 18 18 18 19 19 19 19 19 20 21 21 22 22 23 23 23 24 24 25 25
35 35 35 34 33 33 32 32 32 33 33 33 33 31 31 30 30 30 30 29 29 29 28 28 27 27 27 27 26 25 23 21 20 20 19 19 19 19 19 19 19 18 18 19 19 19 19 18 18 18 18 18 19 19 19 20 20 21 21 22 22 22 23 23 24 24 25 25 26
Wind_Direction
240 242 247 252 254 254 253 250 245 242 240 238 238 239 241 242 242 241 240 239 237 235 234 235 236 236 234 230 229 228 227 225 224 227 231 236 238 238 237 238 240 244 248 252 256 258 260 261 263 264 266 267 268 269 271 272 273 273 274 274 274 274 274 274 273 273 273 273 273
246 251 253 254 255 254 251 246 240 237 237 237 238 239 239 239 238 237 236 236 235 233 233 234 234 231 227 226 226 226 224 222 225 232 238 240 240 239 239 242 245 250 253 256 256 257 258 259 260 262 263 265 266 267 268 269 270 270 271 271 272 272 272 271 271 271 272 272 272
253 254 254 253 252 250 245 238 233 232 233 235 237 237 237 236 234 234 234 234 233 231 232 233 231 227 223 226 227 227 227 228 234 239 241 240 239 241 244 248 251 253 254 254 253 253 255 256 258 260 262 264 265 266 267 267 267 268 269 269 270 270 270 270 270 270 271 271 271
252 251 250 248 246 240 234 230 228 229 232 234 235 235 235 234 233 233 232 231 231 230 231 231 230 227 226 228 229 229 231 234 238 240 240 240 242 246 251 253 254 253 252 250 250 251 254 257 260 263 265 266 267 267 266 266 266 267 267 268 268 268 268 269 269 270 270 270 270
247 247 247 245 238 232 228 226 226 229 232 233 233 234 234 233 232 232 231 228 229 230 231 230 229 228 228 229 229 230 232 235 238 241 243 245 249 253 255 255 254 252 250 250 252 255 258 261 264 266 268 268 267 267 266 266 266 266 266 266 267 267 268 269 269 270 270 270 271
247 247 247 244 234 227 224 225 227 230 233 234 234 233 233 233 233 232 231 229 229 231 234 233 231 228 226 227 229 232 235 239 242 245 249 252 254 255 255 254 253 253 254 255 257 260 262 264 266 267 268 268 267 266 266 265 265 265 265 266 266 267 268 269 270 270 270 271 272
245 243 240 236 232 227 224 225 230 234 237 237 235 234 233 233 233 232 232 232 231 231 233 234 232 229 227 228 232 237 241 245 248 250 252 253 253 253 252 252 253 255 257 259 260 262 263 264 265 266 266 266 266 265 265 264 264 264 265 266 267 268 269 270 270 271 272 273 275
242 239 236 234 230 228 227 229 235 239 241 241 239 236 234 233 233 233 234 234 233 231 231 231 232 232 233 235 240 244 247 249 250 251 251 251 250 251 252 253 255 258 259 260 260 261 262 262 263 264 264 264 264 264 264 264 264 265 266 267 268 269 270 270 272 273 274 276 277
239 237 235 233 231 229 230 233 238 242 244 243 241 238 236 235 234 234 235 236 235 232 231 231 232 235 239 242 246 248 249 249 248 247 247 247 248 250 252 254 256 258 259 259 258 259 260 261 262 263 263 264 264 264 264 265 265 266 267 268 269 270 271 272 273 274 276 277 279
239 239 238 237 235 234 236 239 242 244 245 244 242 240 239 237 237 238 238 237 236 234 233 234 235 238 242 246 249 250 249 247 245 243 244 246 249 250 252 254 255 255 255 256 256 257 258 260 261 263 264 264 264 265 266 266 267 268 269 270 270 271 272 273 274 275 277 278 279
245 246 246 245 243 242 242 243 245 246 246 245 243 242 241 241 240 240 240 239 238 236 236 237 238 240 244 248 249 248 245 243 241 242 244 247 250 251 252 253 252 252 252 253 255 256 258 260 261 263 264 265 266 266 267 268 269 270 271 272 272 272 273 274 275 276 277 278 279
249 250 250 250 248 246 245 245 247 247 246 245 244 243 242 242 241 241 241 241 240 239 239 240 240 242 243 245 244 241 239 238 238 240 243 247 249 251 251 251 251 250 251 253 255 257 259 260 261 262 264 266 267 268 269 270 271 272 272 273 273 274 274 275 276 277 278 279 280
249 250 250 250 248 247 246 246 247 247 245 244 242 242 242 242 241 242 242 242 242 241 242 242 242 242 242 240 237 234 232 232 234 238 242 246 249 250 250 249 249 250 251 254 256 258 260 261 262 263 264 266 268 269 270 271 272 273 273 274 274 274 275 275 276 277 279 280 281
248 248 247 247 246 245 245 246 246 245 244 241 240 240 240 241 241 242 243 243 243 243 243 243 243 242 240 237 234 231 230 231 234 238 242 246 247 247 247 247 248 250 252 255 257 259 260 262 263 264 265 267 268 270 271 272 273 273 273 274 274 275 275 276 277 278 280 281 283
244 243 243 242 242 242 242 242 243 243 241 239 239 239 239 240 241 242 243 243 243 244 244 244 243 241 238 235 233 232 233 234 236 240 243 245 245 244 243 244 247 249 252 255 257 259 261 262 263 265 266 267 269 270 271 272 273 274 274 274 274 275 276 277 278 280 281 282 284
239 238 237 237 237 238 239 240 241 240 239 238 238 238 239 240 241 242 242 243 244 244 244 243 242 240 237 235 234 234 235 236 238 241 243 244 243 242 241 243 245 248 251 253 256 259 261 263 264 265 266 267 268 269 270 272 273 274 274 274 275 276 277 278 279 281 282 283 284
239 238 238 239 239 240 241 240 240 239 239 238 238 238 239 240 240 241 241 242 244 244 243 241 240 237 235 234 235 235 236 237 239 241 242 243 241 240 240 242 244 246 249 252 255 258 260 262 264 265 266 266 267 268 270 271 272 273 273 274 275 276 277 279 280 282 283 284 284
242 242 242 243 244 245 244 243 242 240 239 238 238 238 239 240 239 240 241 242 243 243 241 239 237 235 233 233 235 236 237 238 239 241 242 242 241 241 241 242 243 246 248 251 254 257 259 261 263 264 265 266 267 268 269 270 271 272 273 274 275 276 278 279 281 282 283 284 284
245 245 245 245 246 246 246 245 244 242 240 238 238 238 239 239 239 239 240 242 242 241 239 237 235 233 232 233 235 237 238 239 239 240 240 241 241 241 242 243 244 246 249 251 254 257 259 260 262 263 265 266 267 267 268 269 270 271 273 274 275 277 278 280 281 282 282 283 284
245 245 245 245 245 244 244 243 243 242 240 239 238 238 238 238 238 238 238 239 240 239 237 235 233 232 232 233 235 237 239 240 240 239 239 240 240 242 243 244 245 247 249 252 254 257 258 260 261 263 264 265 265 266 267 269 270 272 273 275 276 277 279 280 281 282 282 283 284
244 244 244 243 241 241 240 240 240 239 239 238 237 236 236 236 235 235 235 235 235 235 233 232 231 231 231 232 234 236 239 242 242 240 239 239 240 242 244 246 247 249 250 253 254 256 258 259 261 262 263 264 264 265 267 268 270 272 274 275 277 278 280 281 282 283 283 284 285
243 243 241 239 237 236 236 236 236 236 236 236 235 235 234 233 232 231 231 231 230 229 228 227 227 228 229 230 233 236 239 243 243 241 240 239 240 242 245 247 248 250 251 253 254 256 257 259 260 261 262 263 264 265 267 268 270 272 274 276 278 279 281 282 283 284 285 286 287
244 242 238 235 233 233 232 232 232 233 233 234 234 233 232 231 229 228 228 228 227 226 225 224 224 225 227 229 232 236 240 243 243 241 240 239 240 242 245 247 249 250 251 253 254 255 257 258 259 260 261 262 264 265 267 269 271 273 275 277 279 281 282 283 284 285 287 288 289
245 240 235 232 231 230 230 229 230 230 231 232 232 232 230 230 229 228 228 227 226 225 224 224 224 225 227 230 233 237 240 242 241 240 239 239 240 242 245 247 249 250 251 253 254 255 256 257 258 259 261 263 264 266 268 270 272 274 276 278 280 282 283 285 286 287 289 290 291
242 236 231 230 229 229 229 229 229 230 231 232 232 231 230 230 229 229 228 228 227 226 225 224 224 226 228 231 235 239 241 242 240 238 237 238 240 242 244 246 248 249 251 252 253 253 255 256 258 259 261 263 265 267 269 271 273 275 277 279 280 283 285 287 288 290 291 292 292
238 233 230 229 229 229 229 229 229 230 231 232 232 231 231 231 231 231 230 229 229 228 226 225 225 227 230 233 236 239 241 241 239 237 235 236 238 241 243 245 247 248 250 251 251 252 253 255 256 259 261 263 265 267 270 272 274 276 278 280 282 284 286 288 290 291 292 293 293
235 233 231 230 230 229 229 229 230 231 232 232 232 232 231 232 232 232 232 230 229 228 226 225 226 228 231 234 236 239 240 240 237 235 234 235 237 239 242 244 245 247 248 249 250 251 252 253 255 258 261 263 265 267 269 271 274 276 279 281 283 285 287 289 291 292 293 294 294
234 232 231 231 230 229 229 230 231 232 233 233 233 231 231 231 232 233 232 231 229 227 225 225 227 229 232 234 236 238 239 238 235 233 233 234 237 238 240 241 243 245 246 247 248 249 251 252 254 257 260 262 265 267 269 271 274 277 279 281 283 286 288 289 291 293 294 295 296
233 232 231 231 231 231 230 231 232 233 233 233 231 230 228 229 231 233 233 232 230 228 227 227 228 230 232 234 236 237 237 235 233 231 232 234 236 238 238 239 241 243 244 245 247 249 250 252 254 256 258 261 264 267 270 272 275 277 280 282 284 286 288 290 292 294 295 296 297
234 233 232 232 232 232 232 232 233 233 232 231 229 226 225 228 232 234 233 232 230 229 228 229 229 230 231 232 235 236 235 233 231 230 232 234 235 236 237 238 240 242 243 244 246 248 250 252 253 255 258 261 264 267 270 273 276 278 280 282 284 287 289 291 293 294 296 297 298
234 233 233 233 233 233 233 233 232 231 230 228 224 223 224 229 233 234 233 232 230 229 229 228 228 229 230 232 234 234 233 231 229 230 231 233 234 234 235 236 239 241 243 244 246 248 249 251 253 255 257 261 265 268 271 274 276 278 281 283 285 287 289 291 293 295 296 297 298
233 232 232 232 233 233 233 232 230 227 225 222 220 221 225 231 234 233 231 230 228 227 227 227 228 229 230 232 232 231 229 227 227 229 231 233 233 233 234 235 238 240 242 243 245 247 248 250 252 255 258 261 265 269 272 275 277 279 281 283 285 287 289 292 293 295 296 297 298
231 231 231 231 231 231 230 228 225 223 221 219 219 222 227 231 233 232 230 228 226 225 226 227 228 229 230 230 229 227 225 225 226 228 230 231 231 231 232 234 237 240 241 242 244 246 248 250 252 255 258 262 266 270 273 275 277 279 281 283 286 288 290 292 294 295 296 297 298
228 228 228 227 227 226 225 223 222 220 219 218 220 224 228 230 231 230 228 227 226 226 227 228 229 229 229 228 226 223 222 223 225 227 229 229 228 229 231 234 238 239 240 242 244 246 247 250 252 255 259 263 267 270 273 275 277 279 282 284 287 290 292 293 294 295 296 297 298
225 224 223 223 223 222 222 222 221 220 220 220 223 226 228 229 229 228 227 226 225 226 227 229 229 229 227 226 223 221 221 222 225 226 227 226 226 227 230 234 238 240 240 242 244 246 248 250 253 256 260 264 268 270 273 275 277 280 283 286 289 291 293 294 295 296 296 297 298
223 222 221 221 222 223 224 224 224 223 222 223 224 225 225 226 227 227 226 225 224 225 226 227 227 227 225 222 221 220 221 223 224 225 224 223 224 226 230 235 238 240 241 243 245 247 249 251 254 258 261 265 268 271 273 275 278 281 284 287 290 292 293 294 295 296 296 297 298
226 224 223 223 224 225 226 226 225 224 223 222 223 223 223 223 225 225 224 223 223 223 224 225 225 223 221 220 219 221 223 224 224 223 222 222 224 227 231 235 239 241 243 245 247 249 251 253 256 259 262 266 268 271 273 276 280 283 286 288 290 292 293 294 295 296 297 298 298
226 225 224 224 224 225 225 225 223 222 221 221 221 221 221 221 223 223 223 222 221 221 222 223 223 221 220 218 219 221 223 224 223 221 220 222 225 229 233 236 240 243 245 247 248 250 252 255 257 260 263 266 268 271 274 278 281 284 286 289 290 292 293 294 295 296 297 298 299
225 225 224 224 224 224 224 223 222 220 219 219 219 219 219 220 222 222 222 220 219 220 221 222 221 220 219 219 220 222 223 223 221 220 220 222 227 231 234 237 241 244 247 247 249 251 253 255 257 260 263 266 269 272 275 278 281 284 286 288 290 291 293 294 295 296 297 299 300
225 225 225 225 225 224 224 223 222 221 220 219 218 217 217 219 220 221 221 220 219 219 220 221 220 220 219 219 221 222 222 221 219 219 220 223 227 231 235 238 241 245 247 248 249 251 252 254 256 259 263 267 270 273 276 279 282 284 286 288 289 291 292 293 295 296 297 299 300
226 226 225 225 225 225 224 223 223 222 221 219 218 217 217 218 220 220 219 218 219 219 220 220 220 219 219 219 221 221 220 218 218 219 221 225 228 232 235 239 242 245 247 249 249 251 252 254 256 259 263 267 271 274 277 279 282 284 286 287 289 290 291 293 294 296 297 298 300